Regional Weather Roundup
Issued by NWS

Home | Current Version | Previous Version | Graphics & Text | Print | Product List | Glossary On
Versions: 1 2 3 4 5 6 7 8 9 10 11 12 13 14 15 16 17 18 19 20 21 22 23 24 25 26 27 28 29 30 31 32 33 34 35 36 37 38 39 40 41 42 43 44 45 46 47 48 49 50
000
ASUS43 KIND 302259
RWRIN

WEATHER ROUNDUP FOR INDIANA
NATIONAL WEATHER SERVICE INDIANAPOLIS IN
700 PM EDT MON MAY 30 2016

NOTE: "FAIR" INDICATES FEW OR NO CLOUDS BELOW 12,000 FEET WITH NO
SIGNIFICANT WEATHER AND/OR OBSTRUCTIONS TO VISIBILITY.

* - STATION DOES NOT REPORT WEATHER SUCH AS PRECIPITATION OR FOG.

+ - STATION NOT QUALITY CONTROLLED BY THE NATIONAL WEATHER SERVICE.
    USE DATA WITH CAUTION...ESPECIALLY DEWPOINT AND RELATIVE
    HUMIDITY OBSERVATIONS.

INZ001>003-010>013-019-020-310000-
NORTHWEST INDIANA

CITY           SKY/WX    TMP DP  RH WIND       PRES   REMARKS
GARY /AIRPORT/ MOSUNNY   81  64  57 NE8       29.96F
RENSSELAER +   PTSUNNY   86  46  25 NW5       29.95F

$$

LMZ046-743>745-310000-
SOUTHERN LAKE MICHIGAN

STATION/POSITION TIME  TEMP    WIND        PRES    WAVE
                       AIR SEA DIR/SP/G            HT
                 (UTC) (F)     (DEG/KT/KT) (MB)    (FT)
BURNS HARBOR     2200   69      70/  9/ 10 1015.6S
MICHIGAN CITY    2200   70      30/ 11/ 11   N/A
5NW MICH CITY    2200   67 62   70/  6/  6   N/A     1

$$

INZ004-005-014>016-021>024-310000-
NORTH CENTRAL INDIANA

CITY           SKY/WX    TMP DP  RH WIND       PRES   REMARKS
ELKHART        SUNNY     82  59  44 NW9       29.98F
GOSHEN         SUNNY     81  52  36 NW10G17   29.97F
SOUTH BEND     SUNNY     83  57  41 N8        29.98F

$$

INZ006>009-017-018-025>027-310000-
NORTHEAST INDIANA

CITY           SKY/WX    TMP DP  RH WIND       PRES   REMARKS
ANGOLA *+        N/A     84  79  84 NW9       29.98S HX  96
FORT WAYNE     MOSUNNY   85  54  34 N9        29.97S

$$

INZ028-029-035-036-043>045-051>053-310000-
WEST CENTRAL INDIANA

CITY           SKY/WX    TMP DP  RH WIND       PRES   REMARKS
CRAWFORDSVL +  CLOUDY    84  53  34 SW5       29.98F
GREENCASTLE +  SUNNY     79  63  57 CALM      29.99F
LAFAYETTE      CLOUDY    83  55  38 W7        29.95F
TERRE HAUTE    MOSUNNY   84  56  38 SE6       29.98F

$$

INZ030>032-037>040-046>048-054>057-064-065-310000-
CENTRAL INDIANA

CITY           SKY/WX    TMP DP  RH WIND       PRES   REMARKS
COLUMBUS       SUNNY     86  54  32 W10       29.98F
INDIANAPOLIS   PTSUNNY   82  57  42 SW9       29.97F
-EAGLE CREEK   CLOUDY    84  54  35 SW5       29.97F
KOKOMO *+      CLOUDY    84  55  37 SW6       29.96S
SHELBYVILLE    SUNNY     87  52  29 NW6       29.97F

$$

INZ033-034-041-042-049-050-058-059-310000-
EAST CENTRAL INDIANA

CITY           SKY/WX    TMP DP  RH WIND       PRES   REMARKS
MUNCIE         MOSUNNY   86  49  27 NW6       29.97F

$$

INZ060-061-067>069-081>083-085>088-310000-
SOUTHWEST INDIANA

CITY           SKY/WX    TMP DP  RH WIND       PRES   REMARKS
EVANSVILLE     SUNNY     85  56  37 NE3       29.98S
HUNTINGBURG *+ SUNNY     84  61  45 NW3       29.98F

$$

INZ062-063-066-070>080-084-089>092-310000-
SOUTH CENTRAL AND SOUTHEAST INDIANA

CITY           SKY/WX    TMP DP  RH WIND       PRES   REMARKS
BLOOMINGTON    SUNNY     83  55  38 VRB3      29.99F
MADISON *+     SUNNY     86  45  23 NE5       30.00F
SEYMOUR +      PTSUNNY   88  55  33 CALM      29.97F

$$





USA.gov is the U.S. government's official web portal to all federal, state and local government web resources and services.